• In Hungary
  • List of Countries
  • For 7 days
  • Water Temperature
  • Satellite Maps
  • Weather Map
  • News
  • Weather Widgets
  • user-avatar
    Login

    Hourly Weather Bihać

    Today, 17 August, Friday

    Time Temperature Precipitation Wind Pressure Humidity
    00:00 +18°C° 0 mm 2 mps 710 mmHg 78%
    01:00 +17°C° 0 mm 2 mps 710 mmHg 79%
    02:00 +17°C° 0.1 mm 2 mps 710 mmHg 80%
    03:00 +17°C° 0.1 mm 2 mps 710 mmHg 81%
    04:00 +17°C° 0.1 mm 2 mps 710 mmHg 81%
    05:00 +18°C° 0.1 mm 2 mps 710 mmHg 79%
    06:00 +19°C° 0.1 mm 2 mps 710 mmHg 77%
    07:00 +21°C° 0 mm 1 mps 710 mmHg 72%
    08:00 +23°C° 0.2 mm 1 mps 711 mmHg 66%
    09:00 +25°C° 0.2 mm 1 mps 711 mmHg 61%
    10:00 +27°C° 0.2 mm 1 mps 711 mmHg 56%
    11:00 +27°C° 0.9 mm 1 mps 711 mmHg 56%
    12:00 +27°C° 0.9 mm 1 mps 711 mmHg 57%
    13:00 +28°C° 0.9 mm 1 mps 711 mmHg 58%
    14:00 +28°C° 0.7 mm 1 mps 711 mmHg 59%
    15:00 +27°C° 0.7 mm 1 mps 711 mmHg 60%
    16:00 +27°C° 0.7 mm 1 mps 710 mmHg 61%
    17:00 +25°C° 0.1 mm 1 mps 710 mmHg 66%
    18:00 +24°C° 0.1 mm 1 mps 710 mmHg 71%
    19:00 +22°C° 0.1 mm 1 mps 710 mmHg 76%
    20:00 +21°C° 0 mm 1 mps 710 mmHg 78%
    21:00 +21°C° 0 mm 1 mps 710 mmHg 80%
    22:00 +20°C° 0 mm 1 mps 711 mmHg 81%
    23:00 +20°C° 0.1 mm 1 mps 711 mmHg 82%

    Tomorrow, 18 August, Saturday

    Time Temperature Precipitation Wind Pressure Humidity
    00:00 +19°C° 0.1 mm 1 mps 711 mmHg 82%
    01:00 +19°C° 0.1 mm 1 mps 711 mmHg 83%
    02:00 +19°C° 0 mm 1 mps 711 mmHg 83%
    03:00 +19°C° 0 mm 1 mps 711 mmHg 83%
    04:00 +18°C° 0 mm 1 mps 711 mmHg 83%
    05:00 +20°C° 0 mm 1 mps 711 mmHg 81%
    06:00 +21°C° 0 mm 1 mps 711 mmHg 78%
    07:00 +22°C° 0 mm 1 mps 711 mmHg 76%
    08:00 +24°C° 0.4 mm 1 mps 712 mmHg 70%
    09:00 +25°C° 0.4 mm 1 mps 712 mmHg 64%
    10:00 +27°C° 0.4 mm 1 mps 713 mmHg 58%
    11:00 +28°C° 0.9 mm 2 mps 712 mmHg 58%
    12:00 +28°C° 0.9 mm 2 mps 712 mmHg 59%
    13:00 +28°C° 0.9 mm 2 mps 712 mmHg 60%
    14:00 +28°C° 0.5 mm 2 mps 712 mmHg 60%
    15:00 +28°C° 0.5 mm 2 mps 712 mmHg 61%
    16:00 +28°C° 0.5 mm 2 mps 712 mmHg 62%
    17:00 +26°C° 0.3 mm 2 mps 712 mmHg 65%
    18:00 +25°C° 0.3 mm 2 mps 712 mmHg 69%
    19:00 +23°C° 0.3 mm 1 mps 711 mmHg 73%
    20:00 +21°C° 0.1 mm 2 mps 712 mmHg 74%
    21:00 +21°C° 0.1 mm 2 mps 712 mmHg 75%
    22:00 +20°C° 0.1 mm 2 mps 712 mmHg 76%
    23:00 +20°C° 0.4 mm 2 mps 712 mmHg 78%

    Day after tomorrow, 19 August, Sunday

    Time Temperature Precipitation Wind Pressure Humidity
    00:00 +20°C° 0.4 mm 2 mps 712 mmHg 79%
    01:00 +19°C° 0.4 mm 2 mps 712 mmHg 80%
    02:00 +19°C° 0 mm 2 mps 712 mmHg 80%
    03:00 +19°C° 0 mm 2 mps 712 mmHg 81%
    04:00 +18°C° 0 mm 2 mps 711 mmHg 81%
    05:00 +19°C° 0 mm 2 mps 712 mmHg 78%
    06:00 +20°C° 0 mm 2 mps 712 mmHg 76%
    07:00 +21°C° 0 mm 3 mps 712 mmHg 73%
    08:00 +24°C° 0 mm 3 mps 712 mmHg 64%
    09:00 +26°C° 0 mm 3 mps 713 mmHg 55%
    10:00 +28°C° 0 mm 3 mps 713 mmHg 46%
    11:00 +29°C° 0 mm 3 mps 713 mmHg 44%
    12:00 +29°C° 0 mm 3 mps 713 mmHg 41%
    13:00 +30°C° 0 mm 3 mps 713 mmHg 39%
    14:00 +30°C° 0 mm 3 mps 712 mmHg 41%
    15:00 +29°C° 0 mm 3 mps 712 mmHg 43%
    16:00 +29°C° 0 mm 2 mps 712 mmHg 45%
    17:00 +27°C° 0 mm 2 mps 712 mmHg 51%
    18:00 +25°C° 0 mm 2 mps 711 mmHg 57%
    19:00 +23°C° 0 mm 2 mps 711 mmHg 62%
    20:00 +21°C° 0 mm 2 mps 711 mmHg 63%
    21:00 +21°C° 0 mm 2 mps 711 mmHg 64%
    22:00 +20°C° 0 mm 3 mps 711 mmHg 66%
    23:00 +19°C° 0 mm 3 mps 711 mmHg 66%

    20 August, Monday

    Time Temperature Precipitation Wind Pressure Humidity
    00:00 +19°C° 0 mm 3 mps 711 mmHg 66%
    01:00 +19°C° 0 mm 3 mps 711 mmHg 67%
    02:00 +18°C° 0 mm 3 mps 710 mmHg 67%
    03:00 +18°C° 0 mm 3 mps 710 mmHg 68%
    04:00 +18°C° 0 mm 3 mps 710 mmHg 69%
    05:00 +19°C° 0 mm 3 mps 710 mmHg 67%
    06:00 +20°C° 0 mm 3 mps 711 mmHg 65%
    07:00 +21°C° 0 mm 3 mps 711 mmHg 63%
    08:00 +24°C° 0 mm 3 mps 711 mmHg 57%
    09:00 +26°C° 0 mm 4 mps 711 mmHg 51%
    10:00 +28°C° 0 mm 4 mps 712 mmHg 44%
    11:00 +28°C° 0 mm 4 mps 712 mmHg 43%
    12:00 +29°C° 0 mm 4 mps 712 mmHg 41%
    13:00 +30°C° 0 mm 3 mps 712 mmHg 40%
    14:00 +30°C° 0 mm 3 mps 711 mmHg 41%
    15:00 +29°C° 0 mm 3 mps 711 mmHg 42%
    16:00 +29°C° 0 mm 3 mps 711 mmHg 44%
    17:00 +27°C° 0 mm 3 mps 711 mmHg 51%
    18:00 +25°C° 0 mm 2 mps 710 mmHg 57%
    19:00 +23°C° 0 mm 2 mps 710 mmHg 64%
    20:00 +21°C° 0 mm 2 mps 710 mmHg 65%
    21:00 +21°C° 0 mm 3 mps 711 mmHg 66%
    22:00 +20°C° 0 mm 3 mps 711 mmHg 68%
    23:00 +20°C° 0 mm 3 mps 711 mmHg 68%

    21 August, Tuesday

    Time Temperature Precipitation Wind Pressure Humidity
    00:00 +19°C° 0 mm 3 mps 711 mmHg 69%
    01:00 +19°C° 0 mm 3 mps 711 mmHg 70%
    02:00 +19°C° 0 mm 3 mps 710 mmHg 71%
    03:00 +19°C° 0 mm 3 mps 710 mmHg 71%
    04:00 +18°C° 0 mm 3 mps 710 mmHg 72%
    05:00 +19°C° 0 mm 3 mps 711 mmHg 70%
    06:00 +20°C° 0 mm 3 mps 711 mmHg 67%
    07:00 +21°C° 0 mm 3 mps 711 mmHg 65%
    08:00 +24°C° 0 mm 3 mps 712 mmHg 58%
    09:00 +26°C° 0 mm 4 mps 712 mmHg 51%
    10:00 +28°C° 0 mm 4 mps 712 mmHg 43%
    11:00 +29°C° 0 mm 4 mps 712 mmHg 41%
    12:00 +30°C° 0 mm 4 mps 712 mmHg 40%
    13:00 +30°C° 0 mm 4 mps 712 mmHg 38%
    14:00 +30°C° 0 mm 3 mps 712 mmHg 39%
    15:00 +30°C° 0 mm 3 mps 712 mmHg 40%
    16:00 +30°C° 0 mm 3 mps 711 mmHg 41%
    17:00 +28°C° 0 mm 3 mps 711 mmHg 48%
    18:00 +26°C° 0 mm 2 mps 711 mmHg 55%
    19:00 +24°C° 0 mm 2 mps 711 mmHg 63%
    20:00 +23°C° 0 mm 2 mps 711 mmHg 65%
    21:00 +21°C° 0 mm 2 mps 711 mmHg 66%
    22:00 +20°C° 0 mm 3 mps 711 mmHg 68%
    23:00 +20°C° 0 mm 3 mps 711 mmHg 69%

    22 August, Wednesday

    Time Temperature Precipitation Wind Pressure Humidity
    00:00 +20°C° 0 mm 3 mps 711 mmHg 69%
    01:00 +19°C° 0 mm 3 mps 711 mmHg 69%
    02:00 +19°C° 0 mm 2 mps 711 mmHg 70%
    03:00 +19°C° 0 mm 2 mps 711 mmHg 71%
    04:00 +18°C° 0 mm 2 mps 711 mmHg 72%
    05:00 +19°C° 0 mm 2 mps 711 mmHg 70%
    06:00 +20°C° 0 mm 2 mps 711 mmHg 68%
    07:00 +21°C° 0 mm 2 mps 711 mmHg 66%
    08:00 +24°C° 0 mm 2 mps 712 mmHg 58%
    09:00 +27°C° 0 mm 2 mps 712 mmHg 51%
    10:00 +29°C° 0 mm 2 mps 712 mmHg 43%
    11:00 +30°C° 0 mm 2 mps 712 mmHg 41%
    12:00 +31°C° 0 mm 2 mps 712 mmHg 38%
    13:00 +33°C° 0 mm 3 mps 712 mmHg 35%
    14:00 +31°C° 0 mm 3 mps 712 mmHg 38%
    15:00 +31°C° 0 mm 3 mps 712 mmHg 40%
    16:00 +30°C° 0 mm 2 mps 711 mmHg 43%
    17:00 +28°C° 0 mm 2 mps 711 mmHg 50%
    18:00 +26°C° 0 mm 2 mps 711 mmHg 57%
    19:00 +24°C° 0 mm 1 mps 711 mmHg 64%
    20:00 +23°C° 0 mm 1 mps 711 mmHg 66%
    21:00 +22°C° 0 mm 1 mps 711 mmHg 67%
    22:00 +22°C° 0 mm 1 mps 711 mmHg 69%
    23:00 +21°C° 0 mm 1 mps 711 mmHg 69%
    Show more